Aérodrome :
LOGIN :

S'inscrire | Disclaimer

   EN    FR    IT 

 










Légende :    VFR   VFR Marginal   IFR   IFR Intensif   IFR Très Intensif
Visi : 
Plafond : 
>= 8 km
>= 3000ft
5 à 8 km
1000 à 3000 ft
1500m à 5 km
500 à 1000 ft
800 à 1500m
200 à 500 ft
< 800m
< 200 ft
Symboles :   Orages  Brouillard  Fortes neiges  Fortes précipitations  Vent > 20 kt
SIGMETs :   Divers  Orages  Givrage  Turbulence  Onde Orograph.  Cendres Volcan.







- Altitude de l'aérodrome : 158 ft
- Code IATA : QAR


EHDL - Deelen Airbase

DERNIER METAR :
  • 171825Z AUTO 00000KT 9000 BR BKN270 BKN330 10/10 Q1019 BLACKBLU

METARs EXPIRÉS :
  • 171755Z AUTO 18002KT 9999 OVC120 11/10 Q1019 BLACKBLU
  • 171725Z AUTO 15002KT 9999 OVC120 12/11 Q1019 BLACKBLU
  • 171655Z AUTO 13002KT 9999 SCT120 OVC260 12/10 Q1019 BLACKBLU
  • 171625Z AUTO 22003KT 140V260 9999 OVC270 13/11 Q1019 BLACKBLU
  • 171555Z AUTO 25005KT 180V290 9999 OVC270 13/11 Q1019 BLACKBLU

Prévision TAF périmée.
Pas de NOTAMs connus pour ce terrain.



MET'MAP, la Météo Aéronautique d'un coup d'oeil ! - Copyright ORBIFLY Décembre 2007 - Disclaimer

ORBIFLY MET'MAP TEAM :

Programmation & Développement : Alexandra Zaïnal
Conception & Développement : Baudouin d'Aumeries
Co-Programmation & Développement : Marc-Olivier Méhu
Soutien technique & logistique : Manuel Goepfert

Contact : metmap@orbifly.com




SOURCES & CREDITS :

   NOAA